sat.trackr.live / text

‹ back to catalog

STARLINK-36469

NORAD 67360 · 2026-003AC

PAYLOAD ACTIVE UNKNOWN

§ Identity

Operator
Country
US
Launch date
2026-01-09
Launch site
AFETR
Launch vehicle
Mass (kg)
RCS (m²)

Purposes: comms

External: N2YO · Heavens-Above · Gunter

§ Orbital elements

Epoch: 2026-09-19T21:55:43.611744Z

Period
94.27 min
Inclination
43.0025°
Eccentricity
0.0001219
Mean motion
15.27589917 rev/d
Perigee alt
482.2 km
Apogee alt
483.9 km
Semi-major
6,861.2 km
B*
5.6850e-4
RAAN
210.5651°
Arg perigee
265.2140°
Mean anomaly
94.8573°
Rev number
3,852

§ Raw data

STARLINK-364691 67360U 26003AC  26262.91369921  .00015419  00000+0  56850-3 0  99972 67360  43.0025 210.5651 0001219 265.2140  94.8573 15.27589917 38529

JSON: /api/v1/satellites/67360 · /tle

For live sub-satellite position, see the globe view (requires WebGL).

§ Visibility from observer

Set your observer location to see the next 7 days of passes ≥ 10°. The values pass through the URL so the page stays shareable.

No JS? Fill the form by hand. The geolocation button needs JavaScript.